THOR ABLESTAR DEB, 324

Orbit data source: Space-Track

THOR ABLESTAR DEB, 324 is space debris in LEO originally from a launch on Thu, 29 Jun 1961 UTC launched from the Air Force Eastern Test Range (AFETR). Debris objects in space refer to the collection of defunct objects orbiting the Earth. Examples of debris include non-operational satellites, rocket bodies, and fragments generated from explosions, collisions, or faulty payload assembly.

Loading next visibility...
THOR ABLESTAR DEB details
Identifier
324, 1961-015DA
Orbit
LEO
Last TLE update2 days ago
Origin
Flag of USUSAF SSD (US)
ManufacturerUnknown
MissionSpacecraft
Bus & MotorUnknown
MassUnknown
Launch date (UTC)
1961-06-29 (64 years ago)
Launch vehicleUnknown
Launch site
Air Force Eastern Test Range (AFETR)
Object type
Payload
Rocket body
Debris
Shape & HBRUnknown
Radar Cross SectionSmall (<0.1 m²)

Expand to show TLE details & history

TLE from 2 days ago
0 THOR ABLESTAR DEB
1 00324U 61015DA  25034.77605242  .00000945  00000-0  54260-3 0  9997
2 00324  66.8626 210.4471 0064747  31.7724 328.7247 14.12584965252654
Epoch: 2025-02-03T18:37Z
Definitive object data (Epoch: 2025-02-03T18:37:30.929Z)
Latitude-0.00003°
Longitude156.87737°
Altitude812.717 km
Speed7.468 km/s
True Right ascension14h 01m 47s
True Declination0° 00' 00"
Sunlit
Object was in daylight at TLE epoch
Visualization TLE readout
Latitude-5.47951°
Longitude-25.34566°
Altitude896.004 km
Speed7.382 km/s
Apparent Right ascension02h 44m 44s
Apparent Declination-22° 10' 54"
Sunlit
Object is in daylight
Visualization observer readout
Local Sidereal Time16:02:12
Azimuth48.57° ENE
Elevation-65.825°
Doppler factor1
Orbital elements
Apogee altitude895.702 km
Perigee altitude802.116 km
Semi-major axis7,227.046 km
Eccentricity0.0064747
Inclination66.8626°
RAAN210.4471°
Arg. of periapsis31.7724°
True anomaly328.33684°
Mean anomaly328.7247°
Eccentric anomaly328.53104°
Mean motion3.53266 °/min
BSTAR0.0005426
Orbital period101.91 mins
Loading maneuver chart data...

THOR ABLESTAR DEB Visibility forecast

Observer location: undefined°, undefined

Span
Click to sort rows by Start time (UTC) header in descending order
Start Az.
Max El. time (UTC)
Max El. Az.
Max El.
End time (UTC)
End Az.
4 mins2025-02-05 15:02:47.850Z297.73° NW2025-02-05 15:04:47.850Z319.795° NNW12.272°2025-02-05 15:06:47.850Z342.127° N
5 mins2025-02-05 20:26:47.850Z17.669° NNE2025-02-05 20:28:47.850Z42.217° NE16.67°2025-02-05 20:31:47.850Z77.152° E
10 mins2025-02-05 22:09:47.850Z330.053° NNW2025-02-05 22:14:47.850Z168.371° S44.243°2025-02-05 22:19:47.850Z154.494° SSE
4 mins2025-02-06 11:20:47.850Z124.722° SE2025-02-06 11:22:47.850Z99.597° ESE15.079°2025-02-06 11:24:47.850Z76.023° E
9 mins2025-02-06 13:02:47.850Z221.567° SW2025-02-06 13:06:47.850Z319.458° NNW42.456°2025-02-06 13:11:47.850Z23.745° NE
|